Time,TemperatureF,DewpointF,PressureIn,WindDirection,WindDirectionDegrees,WindSpeedMPH,WindSpeedGustMPH,Humidity,HourlyPrecipIn,Conditions,Clouds,dailyrainin,SoftwareType,DateUTC
2013-01-01 00:01:00,57.2,54.0,30.01,South,182,3.0,5.0,89,0.00,,,0.00,meteohub,2013-01-01 06:01:00,
2013-01-01 00:07:00,57.0,53.8,30.01,South,180,2.0,4.0,89,0.00,,,0.00,meteohub,2013-01-01 06:07:00,
2013-01-01 00:12:00,57.0,54.1,30.01,South,171,1.0,6.0,90,0.00,,,0.00,meteohub,2013-01-01 06:12:00,
2013-01-01 00:17:00,57.0,54.1,30.01,SSE,163,2.0,6.0,90,0.00,,,0.00,meteohub,2013-01-01 06:17:00,
2013-01-01 00:22:00,56.8,54.0,30.01,South,188,1.0,6.0,90,0.00,,,0.00,meteohub,2013-01-01 06:22:00,
2013-01-01 00:27:00,56.8,54.0,30.01,South,188,0.0,6.0,90,0.00,,,0.00,meteohub,2013-01-01 06:27:00,
2013-01-01 00:32:00,56.8,54.0,30.01,South,188,0.0,5.0,90,0.00,,,0.00,meteohub,2013-01-01 06:32:00,
2013-01-01 00:37:00,56.8,54.0,30.01,South,188,1.0,3.0,90,0.00,,,0.00,meteohub,2013-01-01 06:37:00,
2013-01-01 00:42:00,56.8,54.0,30.00,South,169,3.0,4.0,90,0.00,,,0.00,meteohub,2013-01-01 06:42:00,
2013-01-01 00:47:00,56.8,54.3,30.00,SSE,167,1.0,5.0,91,0.00,,,0.00,meteohub,2013-01-01 06:47:00,
2013-01-01 00:52:00,56.8,54.3,30.00,South,186,1.0,5.0,91,0.00,,,0.00,meteohub,2013-01-01 06:52:00,
2013-01-01 00:57:00,57.0,54.5,30.00,South,186,1.0,5.0,91,0.00,,,0.00,meteohub,2013-01-01 06:57:00,
2013-01-01 01:02:00,56.8,54.3,30.00,South,186,0.0,5.0,91,0.00,,,0.00,meteohub,2013-01-01 07:02:00,
2013-01-01 01:07:00,57.0,54.5,30.00,South,186,0.0,3.0,91,0.00,,,0.00,meteohub,2013-01-01 07:07:00,
2013-01-01 01:12:00,57.0,54.5,30.00,South,186,0.0,2.0,91,0.00,,,0.00,meteohub,2013-01-01 07:12:00,
2013-01-01 01:17:00,57.0,54.5,30.00,South,186,1.0,2.0,91,0.00,,,0.00,meteohub,2013-01-01 07:17:00,
2013-01-01 01:22:00,57.0,54.5,30.00,South,186,0.0,3.0,91,0.00,,,0.00,meteohub,2013-01-01 07:22:00,
2013-01-01 01:27:00,57.2,54.7,30.00,South,182,2.0,3.0,91,0.00,,,0.00,meteohub,2013-01-01 07:27:00,
2013-01-01 01:32:00,57.4,55.0,30.00,South,169,2.0,4.0,92,0.00,,,0.00,meteohub,2013-01-01 07:32:00,
2013-01-01 01:37:00,57.6,55.2,30.00,South,170,1.0,4.0,92,0.00,,,0.00,meteohub,2013-01-01 07:37:00,
2013-01-01 01:42:00,57.7,55.4,30.00,SSE,165,1.0,4.0,92,0.00,,,0.00,meteohub,2013-01-01 07:42:00,
2013-01-01 01:46:00,57.9,55.6,30.00,SSE,165,2.0,5.0,92,0.00,,,0.00,meteohub,2013-01-01 07:46:00,
2013-01-01 01:51:00,58.1,55.8,30.00,SSE,165,1.0,5.0,92,0.00,,,0.00,meteohub,2013-01-01 07:51:00,
2013-01-01 01:56:00,58.3,55.9,29.99,SSE,164,3.0,5.0,92,0.00,,,0.00,meteohub,2013-01-01 07:56:00,
2013-01-01 02:01:00,58.5,56.1,29.99,SSE,152,2.0,5.0,92,0.00,,,0.00,meteohub,2013-01-01 08:01:00,
2013-01-01 02:06:00,58.6,56.3,30.00,SSE,165,1.0,5.0,92,0.00,,,0.00,meteohub,2013-01-01 08:06:00,
2013-01-01 02:11:00,58.6,56.3,29.99,SSE,150,4.0,6.0,92,0.00,,,0.00,meteohub,2013-01-01 08:11:00,
2013-01-01 02:16:00,58.6,55.9,29.99,South,171,3.0,7.0,91,0.00,,,0.00,meteohub,2013-01-01 08:16:00,
2013-01-01 02:21:00,58.6,55.9,29.99,SSE,155,4.0,7.0,91,0.00,,,0.00,meteohub,2013-01-01 08:21:00,
2013-01-01 02:26:00,58.6,55.9,29.99,SSW,192,0.0,7.0,91,0.00,,,0.00,meteohub,2013-01-01 08:26:00,
2013-01-01 02:31:00,58.5,55.8,29.99,South,182,3.0,6.0,91,0.00,,,0.00,meteohub,2013-01-01 08:31:00,
2013-01-01 02:36:00,58.5,55.8,29.99,SSE,165,0.0,6.0,91,0.00,,,0.00,meteohub,2013-01-01 08:36:00,
2013-01-01 02:41:00,58.5,56.1,29.99,South,184,3.0,6.0,92,0.00,,,0.00,meteohub,2013-01-01 08:41:00,
2013-01-01 02:46:00,58.5,56.1,29.99,South,179,1.0,6.0,92,0.00,,,0.00,meteohub,2013-01-01 08:46:00,
2013-01-01 02:51:00,58.6,56.3,29.99,SE,137,4.0,5.0,92,0.00,,,0.00,meteohub,2013-01-01 08:51:00,
2013-01-01 02:56:00,58.6,56.3,29.99,SSE,155,2.0,6.0,92,0.00,,,0.00,meteohub,2013-01-01 08:56:00,
2013-01-01 03:01:00,58.8,56.5,29.98,South,180,2.0,8.0,92,0.00,,,0.00,meteohub,2013-01-01 09:01:00,
2013-01-01 03:06:00,59.0,56.7,29.98,SSE,156,7.0,8.0,92,0.00,,,0.00,meteohub,2013-01-01 09:06:00,
2013-01-01 03:11:00,59.2,56.8,29.98,SSE,161,4.0,8.0,92,0.00,,,0.00,meteohub,2013-01-01 09:11:00,
2013-01-01 03:16:00,59.2,56.5,29.98,South,177,4.0,7.0,91,0.00,,,0.00,meteohub,2013-01-01 09:16:00,
2013-01-01 03:21:00,59.2,56.5,29.98,SE,142,3.0,8.0,91,0.00,,,0.00,meteohub,2013-01-01 09:21:00,
2013-01-01 03:26:00,59.2,56.5,29.98,SSE,150,4.0,8.0,91,0.00,,,0.00,meteohub,2013-01-01 09:26:00,
2013-01-01 03:31:00,59.2,56.5,29.98,South,184,2.0,8.0,91,0.00,,,0.00,meteohub,2013-01-01 09:31:00,
2013-01-01 03:36:00,59.2,56.5,29.98,South,177,2.0,6.0,91,0.00,,,0.00,meteohub,2013-01-01 09:36:00,
2013-01-01 03:41:00,59.4,56.7,29.97,SSE,164,5.0,7.0,91,0.00,,,0.00,meteohub,2013-01-01 09:41:00,
2013-01-01 03:46:00,59.4,56.7,29.97,SSE,165,2.0,7.0,91,0.00,,,0.00,meteohub,2013-01-01 09:46:00,
2013-01-01 03:51:00,59.4,56.7,29.97,SE,145,5.0,5.0,91,0.00,,,0.00,meteohub,2013-01-01 09:51:00,
2013-01-01 03:56:00,59.4,56.7,29.96,South,180,3.0,7.0,91,0.00,,,0.00,meteohub,2013-01-01 09:56:00,
2013-01-01 04:01:00,59.4,56.7,29.97,South,186,1.0,7.0,91,0.00,,,0.00,meteohub,2013-01-01 10:01:00,
2013-01-01 04:06:00,59.5,56.8,29.96,South,190,2.0,7.0,91,0.00,,,0.00,meteohub,2013-01-01 10:06:00,
2013-01-01 04:11:00,59.5,56.8,29.96,South,190,0.0,6.0,91,0.00,,,0.00,meteohub,2013-01-01 10:11:00,
2013-01-01 04:17:00,59.5,56.8,29.96,South,175,0.0,5.0,91,0.00,,,0.00,meteohub,2013-01-01 10:17:00,
2013-01-01 04:22:00,59.5,56.8,29.96,South,175,1.0,5.0,91,0.00,,,0.00,meteohub,2013-01-01 10:22:00,
2013-01-01 04:27:00,59.4,56.7,29.96,South,175,1.0,5.0,91,0.00,,,0.00,meteohub,2013-01-01 10:27:00,
2013-01-01 04:32:00,59.4,56.7,29.95,South,178,0.0,4.0,91,0.00,,,0.00,meteohub,2013-01-01 10:32:00,
2013-01-01 04:37:00,59.2,56.5,29.95,South,178,1.0,4.0,91,0.00,,,0.00,meteohub,2013-01-01 10:37:00,
2013-01-01 04:42:00,59.2,56.5,29.95,South,182,1.0,4.0,91,0.00,,,0.00,meteohub,2013-01-01 10:42:00,
2013-01-01 04:47:00,59.0,56.7,29.95,South,182,1.0,3.0,92,0.00,,,0.00,meteohub,2013-01-01 10:47:00,
2013-01-01 04:52:00,59.0,56.7,29.95,South,173,1.0,4.0,92,0.00,,,0.00,meteohub,2013-01-01 10:52:00,
2013-01-01 04:57:00,59.0,56.7,29.94,South,173,1.0,4.0,92,0.00,,,0.00,meteohub,2013-01-01 10:57:00,
2013-01-01 05:02:00,59.2,56.8,29.94,South,173,1.0,4.0,92,0.00,,,0.00,meteohub,2013-01-01 11:02:00,
2013-01-01 05:07:00,59.2,56.8,29.94,South,180,3.0,4.0,92,0.00,,,0.00,meteohub,2013-01-01 11:07:00,
2013-01-01 05:12:00,59.2,56.8,29.94,SSE,168,4.0,5.0,92,0.00,,,0.00,meteohub,2013-01-01 11:12:00,
2013-01-01 05:17:00,59.2,56.8,29.94,South,175,2.0,5.0,92,0.00,,,0.00,meteohub,2013-01-01 11:17:00,
2013-01-01 05:22:00,59.4,57.0,29.93,South,180,2.0,5.0,92,0.00,,,0.00,meteohub,2013-01-01 11:22:00,
2013-01-01 05:27:00,59.4,57.0,29.94,SSE,161,2.0,5.0,92,0.00,,,0.00,meteohub,2013-01-01 11:27:00,
2013-01-01 05:32:00,59.5,57.2,29.93,SSE,165,4.0,5.0,92,0.00,,,0.00,meteohub,2013-01-01 11:32:00,
2013-01-01 05:37:00,59.7,57.7,29.93,South,175,4.0,6.0,93,0.00,,,0.00,meteohub,2013-01-01 11:37:00,
2013-01-01 05:42:00,60.1,58.1,29.93,SSE,165,2.0,6.0,93,0.00,,,0.00,meteohub,2013-01-01 11:42:00,
2013-01-01 05:47:00,60.4,58.5,29.94,South,180,5.0,6.0,93,0.00,,,0.00,meteohub,2013-01-01 11:47:00,
2013-01-01 05:52:00,61.2,59.2,29.94,South,182,2.0,10.0,93,0.00,,,0.00,meteohub,2013-01-01 11:52:00,
2013-01-01 05:57:00,61.5,59.5,29.94,South,171,6.0,10.0,93,0.00,,,0.00,meteohub,2013-01-01 11:57:00,
2013-01-01 06:02:00,61.9,59.5,29.94,South,172,3.0,13.0,92,0.00,,,0.00,meteohub,2013-01-01 12:02:00,
2013-01-01 06:07:00,62.2,59.9,29.93,South,176,6.0,13.0,92,0.00,,,0.00,meteohub,2013-01-01 12:07:00,
2013-01-01 06:12:00,62.2,59.9,29.93,South,183,5.0,13.0,92,0.00,,,0.00,meteohub,2013-01-01 12:12:00,
2013-01-01 06:17:00,62.4,60.1,29.93,SSW,201,7.0,11.0,92,0.00,,,0.00,meteohub,2013-01-01 12:17:00,
2013-01-01 06:22:00,62.6,60.3,29.93,South,174,7.0,9.0,92,0.00,,,0.00,meteohub,2013-01-01 12:22:00,
2013-01-01 06:27:00,62.8,60.4,29.94,South,173,4.0,10.0,92,0.00,,,0.00,meteohub,2013-01-01 12:27:00,
2013-01-01 06:32:00,63.0,60.6,29.94,South,180,7.0,10.0,92,0.00,,,0.00,meteohub,2013-01-01 12:32:00,
2013-01-01 06:37:00,63.1,60.4,29.94,South,184,3.0,10.0,91,0.00,,,0.00,meteohub,2013-01-01 12:37:00,
2013-01-01 06:42:00,63.1,60.4,29.94,SSE,168,4.0,11.0,91,0.00,,,0.00,meteohub,2013-01-01 12:42:00,
2013-01-01 06:47:00,63.1,60.4,29.94,South,170,4.0,11.0,91,0.00,,,0.00,meteohub,2013-01-01 12:47:00,
2013-01-01 06:52:00,63.3,60.6,29.94,SSE,167,6.0,11.0,91,0.00,,,0.00,meteohub,2013-01-01 12:52:00,
2013-01-01 06:57:00,63.3,60.6,29.94,South,173,5.0,11.0,91,0.00,,,0.00,meteohub,2013-01-01 12:57:00,
2013-01-01 07:02:00,63.3,60.6,29.94,SSE,165,5.0,10.0,91,0.00,,,0.00,meteohub,2013-01-01 13:02:00,
2013-01-01 07:07:00,63.3,60.6,29.94,South,173,3.0,10.0,91,0.00,,,0.00,meteohub,2013-01-01 13:07:00,
2013-01-01 07:12:00,63.3,60.6,29.94,SSW,194,6.0,8.0,91,0.00,,,0.00,meteohub,2013-01-01 13:12:00,
2013-01-01 07:17:00,63.3,60.6,29.94,South,184,3.0,8.0,91,0.00,,,0.00,meteohub,2013-01-01 13:17:00,
2013-01-01 07:22:00,63.3,60.6,29.94,South,187,4.0,8.0,91,0.00,,,0.00,meteohub,2013-01-01 13:22:00,
2013-01-01 07:27:00,63.3,60.6,29.94,South,178,3.0,8.0,91,0.00,,,0.00,meteohub,2013-01-01 13:27:00,
2013-01-01 07:32:00,63.5,60.8,29.94,South,174,6.0,8.0,91,0.00,,,0.00,meteohub,2013-01-01 13:32:00,
2013-01-01 07:37:00,63.5,60.8,29.94,South,170,5.0,8.0,91,0.00,,,0.00,meteohub,2013-01-01 13:37:00,
2013-01-01 07:42:00,63.7,61.0,29.94,South,174,4.0,8.0,91,0.00,,,0.00,meteohub,2013-01-01 13:42:00,
2013-01-01 07:47:00,63.9,61.2,29.95,SW,221,4.0,8.0,91,0.00,,,0.00,meteohub,2013-01-01 13:47:00,
2013-01-01 07:52:00,63.9,61.2,29.95,South,183,7.0,7.0,91,0.00,,,0.00,meteohub,2013-01-01 13:52:00,
2013-01-01 07:57:00,64.0,61.0,29.95,South,182,3.0,8.0,90,0.00,,,0.00,meteohub,2013-01-01 13:57:00,
2013-01-01 08:02:00,64.0,61.0,29.95,SSW,194,5.0,8.0,90,0.00,,,0.00,meteohub,2013-01-01 14:02:00,
2013-01-01 08:07:00,64.2,61.2,29.96,SSE,168,0.0,8.0,90,0.00,,,0.00,meteohub,2013-01-01 14:07:00,
2013-01-01 08:12:00,64.6,61.5,29.96,SSW,195,1.0,7.0,90,0.00,,,0.00,meteohub,2013-01-01 14:12:00,
2013-01-01 08:17:00,64.9,61.9,29.96,SSW,209,6.0,9.0,90,0.00,,,0.00,meteohub,2013-01-01 14:17:00,
2013-01-01 08:22:00,65.5,62.2,29.96,SSW,207,3.0,9.0,89,0.00,,,0.00,meteohub,2013-01-01 14:22:00,
2013-01-01 08:27:00,65.8,62.2,29.96,SW,218,5.0,9.0,88,0.00,,,0.00,meteohub,2013-01-01 14:27:00,
2013-01-01 08:32:00,66.4,62.8,29.96,SSW,194,5.0,11.0,88,0.00,,,0.00,meteohub,2013-01-01 14:32:00,
2013-01-01 08:37:00,66.6,62.6,29.96,South,190,6.0,12.0,87,0.00,,,0.00,meteohub,2013-01-01 14:37:00,
2013-01-01 08:42:00,66.7,62.4,29.96,South,173,4.0,12.0,86,0.00,,,0.00,meteohub,2013-01-01 14:42:00,
2013-01-01 08:47:00,66.9,62.6,29.96,SW,220,6.0,12.0,86,0.00,,,0.00,meteohub,2013-01-01 14:47:00,
2013-01-01 08:52:00,67.3,63.0,29.96,SSW,210,5.0,11.0,86,0.00,,,0.00,meteohub,2013-01-01 14:52:00,
2013-01-01 08:57:00,67.3,63.0,29.97,SW,215,2.0,14.0,86,0.00,,,0.00,meteohub,2013-01-01 14:57:00,
2013-01-01 09:02:00,67.1,62.8,29.98,WSW,246,1.0,14.0,86,0.00,,,0.00,meteohub,2013-01-01 15:02:00,
2013-01-01 09:07:00,66.9,62.6,29.98,NNW,340,0.0,9.0,86,0.00,,,0.00,meteohub,2013-01-01 15:07:00,
2013-01-01 09:12:00,66.6,62.2,29.98,North,5,0.0,6.0,86,0.00,,,0.00,meteohub,2013-01-01 15:12:00,
2013-01-01 09:17:00,66.0,61.7,29.98,North,355,4.0,6.0,86,0.00,,,0.00,meteohub,2013-01-01 15:17:00,
2013-01-01 09:22:00,65.8,61.9,29.99,North,355,0.0,7.0,87,0.00,,,0.00,meteohub,2013-01-01 15:22:00,
2013-01-01 09:27:00,65.7,61.7,29.99,North,355,0.0,7.0,87,0.00,,,0.00,meteohub,2013-01-01 15:27:00,
2013-01-01 09:32:00,65.3,61.3,29.99,NNE,15,2.0,5.0,87,0.00,,,0.00,meteohub,2013-01-01 15:32:00,
2013-01-01 09:37:00,64.6,60.6,29.99,NNW,345,1.0,5.0,87,0.00,,,0.00,meteohub,2013-01-01 15:37:00,
2013-01-01 09:42:00,64.2,60.6,29.99,NNW,344,2.0,5.0,88,0.00,,,0.00,meteohub,2013-01-01 15:42:00,
2013-01-01 09:47:00,64.0,60.4,30.00,NNW,342,3.0,5.0,88,0.00,,,0.00,meteohub,2013-01-01 15:47:00,
2013-01-01 09:52:00,63.7,60.4,30.00,North,5,4.0,5.0,89,0.00,,,0.00,meteohub,2013-01-01 15:52:00,
2013-01-01 09:57:00,63.3,60.3,30.00,NE,36,0.0,5.0,90,0.00,,,0.00,meteohub,2013-01-01 15:57:00,
2013-01-01 10:02:00,63.0,59.9,30.00,NNW,339,0.0,5.0,90,0.01,,,0.01,meteohub,2013-01-01 16:02:00,
2013-01-01 10:07:00,62.8,60.1,30.00,NNW,337,4.0,5.0,91,0.01,,,0.01,meteohub,2013-01-01 16:07:00,
2013-01-01 10:12:00,62.4,59.7,30.00,North,0,2.0,7.0,91,0.01,,,0.01,meteohub,2013-01-01 16:12:00,
2013-01-01 10:17:00,62.2,59.9,30.00,NNW,338,4.0,8.0,92,0.01,,,0.01,meteohub,2013-01-01 16:17:00,
2013-01-01 10:22:00,62.1,59.7,30.01,North,10,3.0,8.0,92,0.01,,,0.01,meteohub,2013-01-01 16:22:00,
2013-01-01 10:27:00,61.9,59.5,30.00,NNE,16,0.0,8.0,92,0.01,,,0.01,meteohub,2013-01-01 16:27:00,
2013-01-01 10:32:00,61.9,59.9,30.00,NE,34,2.0,8.0,93,0.01,,,0.01,meteohub,2013-01-01 16:32:00,
2013-01-01 10:37:00,61.7,59.7,30.00,NNE,18,4.0,8.0,93,0.01,,,0.01,meteohub,2013-01-01 16:37:00,
2013-01-01 10:42:00,61.7,59.7,30.00,NNE,25,6.0,6.0,93,0.02,,,0.02,meteohub,2013-01-01 16:42:00,
2013-01-01 10:47:00,61.7,59.7,30.00,North,5,4.0,7.0,93,0.02,,,0.02,meteohub,2013-01-01 16:47:00,
2013-01-01 10:52:00,61.9,59.9,30.00,NNE,16,4.0,7.0,93,0.02,,,0.02,meteohub,2013-01-01 16:52:00,
2013-01-01 10:57:00,61.9,59.9,30.00,North,11,4.0,7.0,93,0.03,,,0.03,meteohub,2013-01-01 16:57:00,
2013-01-01 11:02:00,61.9,59.9,30.00,NNE,28,4.0,6.0,93,0.02,,,0.03,meteohub,2013-01-01 17:02:00,
2013-01-01 11:07:00,61.9,59.9,29.99,NNE,19,4.0,6.0,93,0.02,,,0.03,meteohub,2013-01-01 17:07:00,
2013-01-01 11:12:00,61.9,60.1,30.00,NNE,19,4.0,6.0,94,0.03,,,0.04,meteohub,2013-01-01 17:12:00,
2013-01-01 11:17:00,61.9,60.1,29.99,NE,37,5.0,6.0,94,0.04,,,0.05,meteohub,2013-01-01 17:17:00,
2013-01-01 11:23:00,61.9,60.1,29.99,NE,37,3.0,6.0,94,0.05,,,0.06,meteohub,2013-01-01 17:23:00,
2013-01-01 11:28:00,61.9,60.1,29.98,NE,37,2.0,6.0,94,0.07,,,0.08,meteohub,2013-01-01 17:28:00,
2013-01-01 11:33:00,62.1,60.3,29.98,NE,37,0.0,6.0,94,0.07,,,0.08,meteohub,2013-01-01 17:33:00,
2013-01-01 11:38:00,62.1,60.3,29.97,ENE,70,2.0,4.0,94,0.09,,,0.10,meteohub,2013-01-01 17:38:00,
2013-01-01 11:43:00,62.2,60.4,29.96,ENE,63,1.0,4.0,94,0.11,,,0.13,meteohub,2013-01-01 17:43:00,
2013-01-01 11:48:00,62.6,60.8,29.95,ENE,71,0.0,4.0,94,0.12,,,0.14,meteohub,2013-01-01 17:48:00,
2013-01-01 11:53:00,63.0,61.5,29.94,ENE,76,3.0,4.0,95,0.12,,,0.15,meteohub,2013-01-01 17:53:00,
2013-01-01 11:58:00,63.1,61.3,29.94,SE,126,3.0,4.0,94,0.13,,,0.16,meteohub,2013-01-01 17:58:00,
2013-01-01 12:03:00,63.1,61.3,29.94,SE,126,0.0,4.0,94,0.13,,,0.16,meteohub,2013-01-01 18:03:00,
2013-01-01 12:08:00,63.3,61.5,29.94,SSE,167,1.0,4.0,94,0.14,,,0.17,meteohub,2013-01-01 18:08:00,
2013-01-01 12:13:00,63.3,61.5,29.94,SSE,167,1.0,4.0,94,0.16,,,0.20,meteohub,2013-01-01 18:13:00,
2013-01-01 12:18:00,63.5,62.1,29.94,SSE,167,1.0,4.0,95,0.15,,,0.20,meteohub,2013-01-01 18:18:00,
2013-01-01 12:23:00,63.7,62.2,29.94,SSE,167,0.0,4.0,95,0.13,,,0.20,meteohub,2013-01-01 18:23:00,
2013-01-01 12:28:00,63.7,62.2,29.93,SSE,167,0.0,4.0,95,0.13,,,0.21,meteohub,2013-01-01 18:28:00,
2013-01-01 12:33:00,63.5,62.1,29.92,SSE,167,0.0,3.0,95,0.16,,,0.25,meteohub,2013-01-01 18:33:00,
2013-01-01 12:38:00,63.7,62.2,29.92,SSE,167,2.0,2.0,95,0.18,,,0.29,meteohub,2013-01-01 18:38:00,
2013-01-01 12:43:00,63.7,62.2,29.92,SSE,167,0.0,1.0,95,0.18,,,0.31,meteohub,2013-01-01 18:43:00,
2013-01-01 12:48:00,63.7,62.2,29.92,SSE,167,0.0,3.0,95,0.18,,,0.33,meteohub,2013-01-01 18:48:00,
2013-01-01 12:53:00,63.7,62.2,29.91,SSE,167,0.0,3.0,95,0.19,,,0.35,meteohub,2013-01-01 18:53:00,
2013-01-01 12:58:00,63.9,62.4,29.91,SSE,167,0.0,2.0,95,0.20,,,0.36,meteohub,2013-01-01 18:58:00,
2013-01-01 13:03:00,63.9,62.4,29.91,SSE,167,0.0,1.0,95,0.20,,,0.37,meteohub,2013-01-01 19:03:00,
2013-01-01 13:08:00,64.0,62.6,29.91,SSE,167,0.0,2.0,95,0.19,,,0.37,meteohub,2013-01-01 19:08:00,
2013-01-01 13:13:00,64.0,62.6,29.91,SSE,167,0.0,2.0,95,0.21,,,0.41,meteohub,2013-01-01 19:13:00,
2013-01-01 13:18:00,64.0,62.6,29.91,SSE,167,0.0,3.0,95,0.23,,,0.43,meteohub,2013-01-01 19:18:00,
2013-01-01 13:23:00,64.0,62.6,29.90,SSE,167,0.0,3.0,95,0.23,,,0.44,meteohub,2013-01-01 19:23:00,
2013-01-01 13:28:00,63.9,62.4,29.91,SSE,167,0.0,3.0,95,0.27,,,0.48,meteohub,2013-01-01 19:28:00,
2013-01-01 13:33:00,63.9,62.4,29.91,SSE,167,0.0,2.0,95,0.23,,,0.50,meteohub,2013-01-01 19:33:00,
2013-01-01 13:38:00,63.9,62.4,29.92,West,275,5.0,5.0,95,0.23,,,0.52,meteohub,2013-01-01 19:38:00,
2013-01-01 13:43:00,61.9,59.9,29.92,NNW,344,1.0,15.0,93,0.23,,,0.56,meteohub,2013-01-01 19:43:00,
2013-01-01 13:48:00,60.1,58.1,29.92,WNW,302,4.0,15.0,93,0.25,,,0.57,meteohub,2013-01-01 19:48:00,
2013-01-01 13:53:00,58.8,56.8,29.92,WNW,284,3.0,15.0,93,0.24,,,0.59,meteohub,2013-01-01 19:53:00,
2013-01-01 13:58:00,58.3,56.5,29.93,NNE,28,3.0,10.0,94,0.27,,,0.63,meteohub,2013-01-01 19:58:00,
2013-01-01 14:03:00,57.6,55.8,29.93,NNW,331,2.0,9.0,94,0.28,,,0.65,meteohub,2013-01-01 20:03:00,
2013-01-01 14:08:00,57.0,55.2,29.93,North,11,3.0,7.0,94,0.36,,,0.74,meteohub,2013-01-01 20:08:00,
2013-01-01 14:13:00,56.3,54.7,29.93,NNW,347,5.0,7.0,94,0.42,,,0.85,meteohub,2013-01-01 20:13:00,
2013-01-01 14:18:00,55.9,54.3,29.93,NW,304,8.0,8.0,94,0.44,,,0.88,meteohub,2013-01-01 20:18:00,
2013-01-01 14:23:00,55.6,54.0,29.93,North,5,3.0,10.0,94,0.44,,,0.90,meteohub,2013-01-01 20:23:00,
2013-01-01 14:28:00,55.6,54.0,29.94,NE,39,1.0,10.0,94,0.43,,,0.91,meteohub,2013-01-01 20:28:00,
2013-01-01 14:33:00,55.4,53.8,29.95,NNW,342,2.0,10.0,94,0.42,,,0.92,meteohub,2013-01-01 20:33:00,
2013-01-01 14:38:00,55.2,53.6,29.94,North,350,6.0,7.0,94,0.40,,,0.93,meteohub,2013-01-01 20:38:00,
2013-01-01 14:43:00,55.0,53.4,29.95,ENE,72,2.0,8.0,94,0.38,,,0.95,meteohub,2013-01-01 20:43:00,
2013-01-01 14:48:00,55.0,53.4,29.95,NNW,348,1.0,8.0,94,0.37,,,0.96,meteohub,2013-01-01 20:48:00,
2013-01-01 14:53:00,55.0,53.4,29.95,NNW,345,4.0,11.0,94,0.37,,,0.97,meteohub,2013-01-01 20:53:00,
2013-01-01 14:58:00,55.0,53.4,29.96,NNE,17,3.0,13.0,94,0.34,,,0.98,meteohub,2013-01-01 20:58:00,
2013-01-01 15:03:00,54.9,53.2,29.95,West,259,3.0,13.0,94,0.30,,,0.99,meteohub,2013-01-01 21:03:00,
2013-01-01 15:08:00,54.9,53.2,29.95,NNW,331,2.0,13.0,94,0.23,,,1.00,meteohub,2013-01-01 21:08:00,
2013-01-01 15:13:00,54.7,53.1,29.96,NNW,346,4.0,10.0,94,0.15,,,1.00,meteohub,2013-01-01 21:13:00,
2013-01-01 15:18:00,54.5,52.9,29.95,NNE,28,4.0,10.0,94,0.12,,,1.01,meteohub,2013-01-01 21:18:00,
2013-01-01 15:23:00,54.3,52.7,29.95,North,5,4.0,10.0,94,0.10,,,1.01,meteohub,2013-01-01 21:23:00,
2013-01-01 15:28:00,54.1,52.5,29.96,NW,309,5.0,12.0,94,0.10,,,1.02,meteohub,2013-01-01 21:28:00,
2013-01-01 15:33:00,54.1,52.5,29.97,NNE,28,13.0,14.0,94,0.10,,,1.03,meteohub,2013-01-01 21:33:00,
2013-01-01 15:38:00,54.1,52.5,29.97,NNE,21,9.0,14.0,94,0.09,,,1.03,meteohub,2013-01-01 21:38:00,
2013-01-01 15:43:00,54.1,52.5,29.97,NNW,335,11.0,13.0,94,0.08,,,1.03,meteohub,2013-01-01 21:43:00,
2013-01-01 15:48:00,54.1,52.5,29.97,North,355,6.0,13.0,94,0.08,,,1.04,meteohub,2013-01-01 21:48:00,
2013-01-01 15:53:00,54.0,52.3,29.97,NNW,330,6.0,13.0,94,0.08,,,1.05,meteohub,2013-01-01 21:53:00,
2013-01-01 15:58:00,54.0,52.3,29.97,NNE,12,12.0,13.0,94,0.07,,,1.05,meteohub,2013-01-01 21:58:00,
2013-01-01 16:03:00,54.0,52.3,29.97,NNW,337,5.0,13.0,94,0.06,,,1.05,meteohub,2013-01-01 22:03:00,
2013-01-01 16:08:00,54.0,52.3,29.98,NNE,16,7.0,13.0,94,0.05,,,1.05,meteohub,2013-01-01 22:08:00,
2013-01-01 16:13:00,54.0,52.3,29.99,North,5,3.0,12.0,94,0.04,,,1.05,meteohub,2013-01-01 22:13:00,
2013-01-01 16:18:00,53.8,51.8,29.98,NNW,337,3.0,12.0,93,0.04,,,1.05,meteohub,2013-01-01 22:18:00,
2013-01-01 16:23:00,53.8,52.2,29.98,North,0,3.0,10.0,94,0.05,,,1.06,meteohub,2013-01-01 22:23:00,
2013-01-01 16:28:00,53.8,52.2,29.99,North,5,6.0,9.0,94,0.05,,,1.07,meteohub,2013-01-01 22:28:00,
2013-01-01 16:33:00,53.4,51.8,29.99,NNE,15,5.0,9.0,94,0.05,,,1.08,meteohub,2013-01-01 22:33:00,
2013-01-01 16:38:00,53.4,51.8,29.99,North,350,7.0,10.0,94,0.05,,,1.08,meteohub,2013-01-01 22:38:00,
2013-01-01 16:43:00,53.4,51.8,29.99,NNE,22,7.0,12.0,94,0.06,,,1.09,meteohub,2013-01-01 22:43:00,
2013-01-01 16:48:00,53.2,51.6,30.00,West,271,3.0,12.0,94,0.05,,,1.09,meteohub,2013-01-01 22:48:00,
2013-01-01 16:53:00,53.2,51.6,30.00,NNW,348,4.0,12.0,94,0.04,,,1.09,meteohub,2013-01-01 22:53:00,
2013-01-01 16:58:00,53.2,51.6,30.01,NNE,28,5.0,10.0,94,0.04,,,1.09,meteohub,2013-01-01 22:58:00,
2013-01-01 17:03:00,53.2,51.3,30.01,NE,45,4.0,12.0,93,0.04,,,1.09,meteohub,2013-01-01 23:03:00,
2013-01-01 17:09:00,53.2,51.3,30.01,NNE,17,10.0,13.0,93,0.04,,,1.09,meteohub,2013-01-01 23:09:00,
2013-01-01 17:14:00,53.2,51.3,30.01,NNE,12,7.0,13.0,93,0.04,,,1.09,meteohub,2013-01-01 23:14:00,
2013-01-01 17:19:00,53.2,51.3,30.01,North,355,7.0,18.0,93,0.04,,,1.10,meteohub,2013-01-01 23:19:00,
2013-01-01 17:24:00,53.1,51.1,30.01,NNE,17,5.0,18.0,93,0.03,,,1.10,meteohub,2013-01-01 23:24:00,
2013-01-01 17:29:00,53.1,51.1,30.01,NW,325,10.0,18.0,93,0.03,,,1.10,meteohub,2013-01-01 23:29:00,
2013-01-01 17:34:00,52.9,50.9,30.01,NW,322,10.0,18.0,93,0.03,,,1.11,meteohub,2013-01-01 23:34:00,
2013-01-01 17:39:00,52.7,50.4,30.02,NNW,345,7.0,18.0,92,0.03,,,1.11,meteohub,2013-01-01 23:39:00,
2013-01-01 17:44:00,52.5,50.2,30.02,NNE,19,6.0,18.0,92,0.02,,,1.11,meteohub,2013-01-01 23:44:00,
2013-01-01 17:49:00,52.3,50.0,30.02,North,351,4.0,17.0,92,0.02,,,1.11,meteohub,2013-01-01 23:49:00,
2013-01-01 17:54:00,52.2,49.8,30.02,North,5,5.0,17.0,92,0.02,,,1.11,meteohub,2013-01-01 23:54:00,
2013-01-01 17:59:00,52.2,49.8,30.03,NNE,22,7.0,14.0,92,0.02,,,1.11,meteohub,2013-01-01 23:59:00,
2013-01-01 18:04:00,52.0,49.6,30.04,NNW,344,8.0,14.0,92,0.02,,,1.11,meteohub,2013-01-02 00:04:00,
2013-01-01 18:09:00,51.8,49.6,30.04,NNE,17,9.0,12.0,92,0.02,,,1.11,meteohub,2013-01-02 00:09:00,
2013-01-01 18:14:00,51.6,49.5,30.05,NE,49,6.0,11.0,92,0.02,,,1.11,meteohub,2013-01-02 00:14:00,
2013-01-01 18:19:00,51.4,49.3,30.05,North,5,5.0,12.0,92,0.01,,,1.11,meteohub,2013-01-02 00:19:00,
2013-01-01 18:24:00,51.3,49.3,30.05,NNE,32,9.0,12.0,93,0.02,,,1.12,meteohub,2013-01-02 00:24:00,
2013-01-01 18:29:00,51.3,49.3,30.05,NNE,33,5.0,11.0,93,0.03,,,1.13,meteohub,2013-01-02 00:29:00,
2013-01-01 18:34:00,51.1,49.1,30.05,North,355,5.0,11.0,93,0.02,,,1.13,meteohub,2013-01-02 00:34:00,
2013-01-01 18:39:00,51.1,49.1,30.06,NNW,348,6.0,11.0,93,0.03,,,1.14,meteohub,2013-01-02 00:39:00,
2013-01-01 18:44:00,51.1,49.1,30.06,NNE,15,6.0,13.0,93,0.04,,,1.15,meteohub,2013-01-02 00:44:00,
2013-01-01 18:49:00,51.1,49.1,30.06,NNE,29,6.0,13.0,93,0.04,,,1.15,meteohub,2013-01-02 00:49:00,
2013-01-01 18:54:00,51.1,49.1,30.06,North,355,6.0,13.0,93,0.04,,,1.15,meteohub,2013-01-02 00:54:00,
2013-01-01 18:59:00,51.3,49.3,30.06,NE,38,5.0,9.0,93,0.04,,,1.15,meteohub,2013-01-02 00:59:00,
2013-01-01 19:04:00,51.3,49.3,30.05,NNE,13,7.0,11.0,93,0.05,,,1.16,meteohub,2013-01-02 01:04:00,
2013-01-01 19:09:00,51.3,49.1,30.05,NNE,17,8.0,12.0,92,0.05,,,1.16,meteohub,2013-01-02 01:09:00,
2013-01-01 19:14:00,51.3,49.1,30.05,NNE,26,7.0,12.0,92,0.06,,,1.17,meteohub,2013-01-02 01:14:00,
2013-01-01 19:19:00,51.3,49.1,30.05,North,355,8.0,12.0,92,0.06,,,1.17,meteohub,2013-01-02 01:19:00,
2013-01-01 19:24:00,51.4,49.3,30.05,NNE,16,4.0,11.0,92,0.05,,,1.17,meteohub,2013-01-02 01:24:00,
2013-01-01 19:29:00,51.4,49.3,30.06,NE,34,2.0,13.0,92,0.04,,,1.17,meteohub,2013-01-02 01:29:00,
2013-01-01 19:34:00,51.4,49.3,30.07,NNW,329,6.0,13.0,92,0.03,,,1.17,meteohub,2013-01-02 01:34:00,
2013-01-01 19:39:00,51.3,49.1,30.08,NW,323,3.0,11.0,92,0.03,,,1.17,meteohub,2013-01-02 01:39:00,
2013-01-01 19:44:00,51.3,49.1,30.08,North,5,7.0,9.0,92,0.02,,,1.17,meteohub,2013-01-02 01:44:00,
2013-01-01 19:49:00,51.3,49.1,30.08,North,11,4.0,7.0,92,0.03,,,1.18,meteohub,2013-01-02 01:49:00,
2013-01-01 19:54:00,51.1,48.9,30.08,North,5,3.0,8.0,92,0.03,,,1.18,meteohub,2013-01-02 01:54:00,
2013-01-01 19:59:00,51.1,48.9,30.08,North,0,4.0,8.0,92,0.03,,,1.18,meteohub,2013-01-02 01:59:00,
2013-01-01 20:04:00,50.9,48.7,30.08,North,5,4.0,8.0,92,0.02,,,1.18,meteohub,2013-01-02 02:04:00,
2013-01-01 20:09:00,50.7,48.6,30.09,North,0,4.0,11.0,92,0.02,,,1.18,meteohub,2013-01-02 02:09:00,
2013-01-01 20:14:00,50.7,48.7,30.08,NNW,343,4.0,11.0,93,0.02,,,1.19,meteohub,2013-01-02 02:14:00,
2013-01-01 20:19:00,50.7,48.7,30.08,NNE,14,1.0,8.0,93,0.02,,,1.19,meteohub,2013-01-02 02:19:00,
2013-01-01 20:24:00,50.5,48.6,30.09,North,5,4.0,7.0,93,0.02,,,1.19,meteohub,2013-01-02 02:24:00,
2013-01-01 20:29:00,50.5,48.6,30.09,NNE,28,4.0,8.0,93,0.02,,,1.19,meteohub,2013-01-02 02:29:00,
2013-01-01 20:34:00,50.5,48.6,30.09,NNW,348,6.0,8.0,93,0.02,,,1.19,meteohub,2013-01-02 02:34:00,
2013-01-01 20:39:00,50.4,48.4,30.08,North,0,3.0,9.0,93,0.02,,,1.19,meteohub,2013-01-02 02:39:00,
2013-01-01 20:44:00,50.4,48.7,30.08,North,5,3.0,9.0,94,0.03,,,1.20,meteohub,2013-01-02 02:44:00,
2013-01-01 20:49:00,50.4,48.7,30.09,NW,324,2.0,9.0,94,0.02,,,1.20,meteohub,2013-01-02 02:49:00,
2013-01-01 20:54:00,50.4,48.7,30.08,NNW,336,4.0,9.0,94,0.02,,,1.20,meteohub,2013-01-02 02:54:00,
2013-01-01 20:59:00,50.2,48.6,30.09,WNW,302,2.0,9.0,94,0.02,,,1.20,meteohub,2013-01-02 02:59:00,
2013-01-01 21:04:00,50.2,48.6,30.10,NNW,333,1.0,9.0,94,0.02,,,1.20,meteohub,2013-01-02 03:04:00,
2013-01-01 21:09:00,50.2,48.2,30.11,North,355,2.0,8.0,93,0.02,,,1.20,meteohub,2013-01-02 03:09:00,
2013-01-01 21:14:00,50.2,48.6,30.10,NNW,336,6.0,7.0,94,0.01,,,1.20,meteohub,2013-01-02 03:14:00,
2013-01-01 21:19:00,50.2,48.6,30.10,North,355,6.0,7.0,94,0.01,,,1.20,meteohub,2013-01-02 03:19:00,
2013-01-01 21:24:00,50.2,48.6,30.10,NNE,32,5.0,9.0,94,0.01,,,1.20,meteohub,2013-01-02 03:24:00,
2013-01-01 21:29:00,50.2,48.6,30.11,NNW,338,4.0,9.0,94,0.02,,,1.21,meteohub,2013-01-02 03:29:00,
2013-01-01 21:34:00,50.2,48.6,30.11,North,0,2.0,9.0,94,0.02,,,1.21,meteohub,2013-01-02 03:34:00,
2013-01-01 21:39:00,50.2,48.6,30.11,NNW,341,3.0,8.0,94,0.01,,,1.21,meteohub,2013-01-02 03:39:00,
2013-01-01 21:44:00,50.2,48.2,30.10,NNE,15,6.0,8.0,93,0.01,,,1.21,meteohub,2013-01-02 03:44:00,
2013-01-01 21:49:00,50.2,48.2,30.10,North,355,6.0,8.0,93,0.01,,,1.21,meteohub,2013-01-02 03:49:00,
2013-01-01 21:54:00,50.0,48.0,30.09,North,355,6.0,8.0,93,0.01,,,1.21,meteohub,2013-01-02 03:54:00,
2013-01-01 21:59:00,50.0,48.0,30.09,NNW,339,4.0,9.0,93,0.01,,,1.21,meteohub,2013-01-02 03:59:00,
2013-01-01 22:04:00,49.8,47.8,30.10,NE,39,4.0,9.0,93,0.01,,,1.21,meteohub,2013-01-02 04:04:00,
2013-01-01 22:09:00,49.6,47.7,30.10,NNE,20,5.0,10.0,93,0.01,,,1.21,meteohub,2013-01-02 04:09:00,
2013-01-01 22:14:00,49.6,47.7,30.10,NNW,344,5.0,10.0,93,0.01,,,1.21,meteohub,2013-01-02 04:14:00,
2013-01-01 22:19:00,49.5,47.5,30.10,North,5,5.0,11.0,93,0.01,,,1.21,meteohub,2013-01-02 04:19:00,
2013-01-01 22:24:00,49.3,47.3,30.12,NNE,24,10.0,11.0,93,0.01,,,1.21,meteohub,2013-01-02 04:24:00,
2013-01-01 22:29:00,49.1,47.1,30.11,NNW,341,13.0,13.0,93,0.00,,,1.21,meteohub,2013-01-02 04:29:00,
2013-01-01 22:34:00,48.9,46.9,30.11,NW,326,11.0,12.0,93,0.00,,,1.21,meteohub,2013-01-02 04:34:00,
2013-01-01 22:39:00,48.9,46.9,30.11,NE,36,7.0,14.0,93,0.00,,,1.21,meteohub,2013-01-02 04:39:00,
2013-01-01 22:44:00,48.7,46.8,30.10,NNE,15,5.0,14.0,93,0.00,,,1.21,meteohub,2013-01-02 04:44:00,
2013-01-01 22:49:00,48.6,46.6,30.11,NNW,344,10.0,12.0,93,0.00,,,1.21,meteohub,2013-01-02 04:49:00,
2013-01-01 22:54:00,48.6,46.6,30.11,North,0,6.0,11.0,93,0.00,,,1.21,meteohub,2013-01-02 04:54:00,
2013-01-01 22:59:00,48.6,46.6,30.11,NNE,14,8.0,12.0,93,0.00,,,1.21,meteohub,2013-01-02 04:59:00,
2013-01-01 23:00:00,48.6,46.6,30.11,NNE,13,8.0,13.0,93,0.00,,,1.21,meteohub,2013-01-02 05:00:00,
2013-01-01 23:01:00,48.6,46.6,30.11,NNE,13,8.0,13.0,93,0.00,,,1.21,meteohub,2013-01-02 05:01:00,
2013-01-01 23:06:00,48.6,46.6,30.09,North,355,11.0,13.0,93,0.00,,,1.21,meteohub,2013-01-02 05:06:00,
2013-01-01 23:11:00,48.4,46.2,30.11,NNW,343,7.0,16.0,92,0.00,,,1.21,meteohub,2013-01-02 05:11:00,
2013-01-01 23:16:00,48.4,46.2,30.12,North,11,4.0,16.0,92,0.00,,,1.21,meteohub,2013-01-02 05:16:00,
2013-01-01 23:21:00,48.4,46.2,30.11,NNE,26,6.0,15.0,92,0.00,,,1.21,meteohub,2013-01-02 05:21:00,
2013-01-01 23:26:00,48.2,46.0,30.11,NNE,15,5.0,13.0,92,0.00,,,1.21,meteohub,2013-01-02 05:26:00,
2013-01-01 23:31:00,48.0,46.0,30.12,NNW,338,7.0,12.0,93,0.00,,,1.21,meteohub,2013-01-02 05:31:00,
2013-01-01 23:36:00,48.0,46.0,30.11,NNW,329,8.0,12.0,93,0.00,,,1.21,meteohub,2013-01-02 05:36:00,
2013-01-01 23:41:00,48.2,46.2,30.10,NNE,17,10.0,12.0,93,0.00,,,1.21,meteohub,2013-01-02 05:41:00,
2013-01-01 23:46:00,48.0,45.9,30.13,NNW,337,4.0,13.0,92,0.00,,,1.21,meteohub,2013-01-02 05:46:00,
2013-01-01 23:51:00,48.0,45.9,30.12,NE,35,3.0,13.0,92,0.00,,,1.21,meteohub,2013-01-02 05:51:00,
2013-01-01 23:56:00,48.0,45.9,30.10,North,5,4.0,13.0,92,0.00,,,1.21,meteohub,2013-01-02 05:56:00,